TimeCDT,TemperatureF,Dew PointF,Humidity,Sea Level PressureIn,VisibilityMPH,Wind Direction,Wind SpeedMPH,Gust SpeedMPH,PrecipitationIn,Events,Conditions,WindDirDegrees,DateUTC
12:53 AM,37.9,30.0,73,29.97,10.0,West,10.4,-,N/A,,Clear,270,2011-10-17 05:53:00
1:53 AM,36.0,28.9,76,29.97,10.0,West,9.2,-,N/A,,Clear,270,2011-10-17 06:53:00
2:53 AM,35.1,28.9,78,29.97,10.0,West,9.2,-,N/A,,Clear,280,2011-10-17 07:53:00
3:53 AM,35.1,28.9,78,29.95,10.0,West,9.2,-,N/A,,Clear,280,2011-10-17 08:53:00
4:53 AM,33.8,28.4,81,29.95,10.0,West,8.1,-,N/A,,Clear,260,2011-10-17 09:53:00
5:53 AM,34.0,28.9,82,29.96,10.0,West,11.5,-,N/A,,Clear,280,2011-10-17 10:53:00
6:53 AM,34.0,28.9,82,29.96,10.0,West,9.2,-,N/A,,Clear,280,2011-10-17 11:53:00
7:53 AM,36.0,30.0,79,29.96,10.0,West,10.4,-,N/A,,Clear,280,2011-10-17 12:53:00
8:53 AM,39.0,32.0,76,29.96,10.0,West,10.4,-,N/A,,Clear,280,2011-10-17 13:53:00
9:53 AM,45.0,33.1,63,29.96,10.0,West,15.0,-,N/A,,Clear,280,2011-10-17 14:53:00
10:53 AM,50.0,33.1,52,29.97,10.0,West,17.3,20.7,N/A,,Clear,280,2011-10-17 15:53:00
11:53 AM,51.8,30.2,44,29.95,10.0,WNW,18.4,-,N/A,,Clear,290,2011-10-17 16:53:00
12:53 PM,55.9,30.9,39,29.94,10.0,West,19.6,26.5,N/A,,Clear,280,2011-10-17 17:53:00
1:53 PM,57.9,27.0,31,29.92,10.0,WNW,20.7,-,N/A,,Clear,300,2011-10-17 18:53:00
2:53 PM,57.0,27.0,32,29.91,10.0,WNW,18.4,29.9,N/A,,Clear,300,2011-10-17 19:53:00
3:53 PM,55.9,28.0,34,29.90,10.0,WNW,21.9,-,N/A,,Clear,290,2011-10-17 20:53:00
4:53 PM,55.9,24.1,29,29.88,10.0,WNW,24.2,31.1,N/A,,Clear,300,2011-10-17 21:53:00
5:53 PM,54.0,26.1,34,29.89,10.0,NW,15.0,-,N/A,,Clear,310,2011-10-17 22:53:00
6:53 PM,50.0,26.6,40,29.90,10.0,WNW,11.5,-,N/A,,Clear,300,2011-10-17 23:53:00
7:53 PM,42.8,26.6,53,29.91,10.0,West,9.2,-,N/A,,Clear,280,2011-10-18 00:53:00
8:53 PM,42.1,28.0,58,29.93,10.0,West,8.1,-,N/A,,Clear,260,2011-10-18 01:53:00
9:53 PM,42.1,28.0,58,29.93,10.0,West,9.2,-,N/A,,Clear,270,2011-10-18 02:53:00
10:53 PM,44.1,28.9,55,29.92,10.0,West,10.4,-,N/A,,Clear,270,2011-10-18 03:53:00
11:53 PM,42.1,30.0,62,29.92,10.0,West,10.4,-,N/A,,Clear,280,2011-10-18 04:53:00